Regional Weather Roundup
Issued by NWS

Home | Current Version | Previous Version | Text Only | Print | Product List | Glossary Off
Versions: 1 2 3 4 5 6 7 8 9 10 11 12 13 14 15 16 17 18 19 20 21 22 23 24 25 26 27 28 29 30 31 32 33 34 35 36 37 38 39 40 41 42 43 44 45 46 47 48 49 50

000
ASUS43 KFSD 181310
RWRSD

WEATHER ROUNDUP FOR SOUTH DAKOTA
NATIONAL WEATHER SERVICE SIOUX FALLS SD
800 AM CDT FRI AUG 18 2017

NOTE: "FAIR" INDICATES FEW OR NO CLOUDS BELOW 12,000 FEET WITH NO
SIGNIFICANT WEATHER AND/OR OBSTRUCTIONS TO VISIBILITY.


SDZ001>005-009-010-012>017-181400-
NORTHWEST AND NORTH CENTRAL SOUTH DAKOTA

CITY           SKY/WX    TMP DP  RH WIND       PRES   REMARKS
BUFFALO          N/A     58  47  66 NE7       29.97R
FAITH            N/A     57  49  74 N9        29.98R
MOBRIDGE       SUNNY     63  57  81 NW13      29.88S
$$

SDZ012>016-024>037-041>051-057-063-072>074-181400-
SOUTHWEST AND SOUTH CENTRAL SOUTH DAKOTA

CITY           SKY/WX    TMP DP  RH WIND       PRES   REMARKS
RAPID CTY ARPT CLEAR     61  47  59 N10       30.02R
PIERRE         MOSUNNY   59  56  89 SW8       29.90S
CUSTER         CLEAR     58  39  49 NW5       30.17R
ELLSWORTH AFB  CLEAR     61  48  61 NW5       30.02R
PHILIP         SUNNY     56  50  80 W9        29.97R
PINE RIDGE     CLEAR     58  50  75 W5        30.06R
SPEARFISH      FAIR      63  43  48 W6        30.07R
WINNER         FAIR      60  54  80 SW7       29.95R
$$

SDZ004>011-016>023-039-040-181400-
NORTHEAST SOUTH DAKOTA

CITY           SKY/WX    TMP DP  RH WIND       PRES   REMARKS
ABERDEEN       SUNNY     59  58  96 S7        29.88F
WATERTOWN      CLOUDY    61  60  97 S5        29.91F
BROOKINGS      CLOUDY    60  59  96 SW5       29.94R
SISSETON         N/A     63  61  93 S9        29.85R
$$

SDZ017-020-022-023-036>040-048>070-181400-
SOUTHEAST SOUTH DAKOTA

CITY           SKY/WX    TMP DP  RH WIND       PRES   REMARKS
SIOUX FALLS    MOSUNNY   63  62  97 CALM      29.94R
HURON          CLOUDY    62  60  93 E7        29.91R
CHAMBERLAIN    SUNNY     63  63 100 SW7       29.92S
MITCHELL       SUNNY     62  60  93 S5        29.91R FOG
$$

ABBREVIATIONS USED IN REMARKS
   TC - TEMPERATURE IN CELSIUS
  WCI - WIND CHILL INDEX
   HX - HEAT INDEX
  VSB - VISIBILITY





USA.gov is the U.S. government's official web portal to all federal, state and local government web resources and services.